Weather in Tuholka

Ukraine / Lviv District     48°52′54″N   23°17′24″E
temp.,
°C
wind,
m/s
gust,
m/s
humid.,
%
clouds,
%
prec.,
mm/h
press.,
hPa
HPBL,
m
16 september, thu
thu1600:00+12sse2285100 0.0 101831
03:00+11s228832 0.0 101831
06:00+11s238736 0.0 101745
09:00+15s2575100 0.0 1016128
12:00+20ssw4854100 0.0 1016764
15:00+22sw5846100 0.0 10151128
18:00+20ssw5958100 0.0 1014959
21:00+15s3984100 0.4 1014260
17 september, fri
fri1700:00+14s3118945 0.4 1013322
03:00+13ssw229498 0.6 101242
06:00+12ssw2296100 0.0 101130
09:00+14ssw239196 0.0 1011171
12:00+14sse1398100 2.8 1009198
15:00+14ese1399100 12.6 1007233
18:00+12nw3798100 9.7 1007597
21:00+10nw2998100 14.6 1010707
18 september, sat
sat1800:00+10nw2897100 0.6 1011635
03:00+10wnw2594100 0.6 1011417
06:00+9w159580 0.3 1011287
09:00+9w279152 0.3 1011682
12:00+12wnw467086 0.1 10111184
15:00+12wsw3570100 0.2 10111052
18:00+11wsw2481100 0.1 1011447
21:00+9wsw119190 0.3 101232
19 september, sun
sun1900:00+9ssw2592100 0.1 1012254
03:00+8sw2791100 0.2 1011602
06:00+7nw2598100 2.2 1011398
09:00+5nnw2597100 5.2 1013411
12:00+4nw1696100 0.3 1015692
15:00+5nw2592100 0.4 1015903
18:00+4nw2595100 0.3 1015876
21:00+3wnw1697100 0.6 1015846
20 september, mon
mon2000:00+3wnw1698100 0.3 1015675
03:00+3w1798100 0.4 1015630
06:00+4w1899100 0.2 1015643
09:00+4w1798100 0.6 1015576
12:00+4wnw1798100 0.3 1017705
15:00+4nw2697100 0.5 1017805
18:00+3wnw1798100 0.3 1019835
21:00+3nw2698100 0.6 1020845